Location: McFarlands Corners
(41.4117°N, 81.3382°W)
Time: 00:10:24
(UTC+00:00)

Vanguard 3 - Pass Details

Date: 14 November 2024
Orbit: 507 x 3220 km, 33.4° (Epoch: 06 December)

Event Time Altitude Azimuth Distance (km) Brightness Sun altitude
Rises 23:20:39 0° 276° (W) 5,580 12.9 -14.1°
Reaches altitude 10° 23:25:44 10° 265° (W) 4,047 12.1 -15.0°
Maximum altitude 23:33:09 24° 217° (SW) 2,303 10.0 -16.4°
Drops below altitude 10° 23:38:10 10° 165° (SSE) 2,617 9.7 -17.3°
Sets 23:40:42 0° 150° (SSE) 3,277 10.1 -17.8°
